[[{"header":{"parameterUnit":"m.s-1","parameterCategory":1,"la1":30.2991,"la2":30.254,"lo1":-89.0895,"lo2":-89.0444,"dy":0.0017,"dx":0.0017,"nx":28,"ny":28,"refTime":"2023-08-08T21:00:00:Z","depth":0,"parameterNumber":2,"parameterNumberName":"U-component_of_WINDS"},"data":[0,0,0,0,0,0,0,0,0,0,0,0,0,0,0,0,0,0,0,0,0,0,0,0,0,0,0,0,0,0,0,0,0,0,0,0,0,0,0,0,0,0,0,0,0,0,0,0,0,0,0,0,0,0,0,0,0,0,4.8854,4.8856,0,4.8972,4.8973,4.8975,4.8986,4.8985,4.8983,4.8982,4.9104,4.9108,4.9113,0,0,0,0,0,0,0,0,0,0,0,0,0,4.864,4.8644,4.8854,4.8856,4.8857,4.8972,4.8973,4.8975,4.8986,4.8984,4.8983,4.8982,4.9103,4.9108,4.9113,0,0,0,0,0,0,0,0,0,0,0,0,0,4.8743,4.8645,4.8854,4.8876,4.888,4.8971,4.8973,4.8975,4.8986,4.8984,4.8983,4.8981,4.9101,4.9107,4.9114,4.9192,0,0,4.9134,4.9137,0,0,0,0,0,0,0,0,4.8737,4.8751,4.8872,4.8875,4.8879,4.8962,4.8943,4.9048,4.8987,4.8946,4.8982,4.898,4.9058,4.9068,4.9095,4.9197,4.9203,4.9135,4.9139,4.9141,4.9143,0,0,0,0,0,0,0,4.873,4.8746,4.8901,4.8873,4.8878,4.8881,4.8894,4.8963,4.9011,4.8949,4.895,4.8964,4.906,4.9088,4.9098,4.9204,4.9134,4.914,4.9144,4.9147,4.9378,4.938,0,0,0,0,0,0,4.8719,4.874,4.8897,4.8904,4.8802,4.8886,4.89,4.8937,4.901,4.902,4.8966,4.8964,4.9078,4.909,4.9102,4.9198,4.9141,4.9148,4.9151,4.9376,4.9378,4.938,0,0,0,0,0,0,4.8714,4.8733,4.8892,4.8823,4.8843,4.8892,4.8933,4.8941,4.8969,4.9023,4.9032,4.8985,4.9077,4.9093,4.9169,4.9202,4.9151,4.9157,4.9373,4.9376,4.9379,4.9391,0,0,0,0,0,0,4.8708,4.8731,4.876,4.8823,4.8847,4.8957,4.8935,4.8944,4.898,4.8979,4.9044,4.9053,4.9077,4.9159,4.9176,4.9211,4.9162,4.937,4.9374,4.9378,4.9388,4.9394,4.9399,0,0,0,0,0,4.87,4.8759,4.8762,4.8781,4.8885,4.8959,4.8973,4.8999,4.8983,4.9013,4.9048,4.905,4.9196,4.9167,4.9186,4.9223,4.9368,4.9373,4.9378,4.9385,4.9393,4.9399,0,0,0,0,0,0,4.8699,4.8768,4.8772,4.8853,4.89,4.8961,4.9,4.9006,4.906,4.9057,4.9087,4.9102,4.9177,4.9208,4.9174,4.9303,4.9281,4.9289,4.928,4.9287,4.9293,4.9284,4.9167,0,0,0,0,0,4.8709,4.8763,4.882,4.8886,4.891,4.8951,4.8984,4.9,4.9051,4.9071,4.9111,4.916,4.9217,4.9254,4.931,4.9392,4.9407,4.9427,4.9433,4.9438,4.9445,4.9491,4.9501,4.9397,4.9396,4.9396,0,0,4.8728,4.8772,4.8805,4.8887,4.8925,4.8981,4.8967,4.9027,4.9069,4.908,4.9155,4.9186,4.9243,4.9323,4.9361,4.9351,4.9477,4.9444,4.9447,4.9452,4.9497,4.9507,4.9516,4.94,4.9399,4.9399,0,0,4.8793,4.8831,4.8891,4.893,4.8988,4.9015,4.903,4.909,4.9111,4.9187,4.9196,4.9247,4.9344,4.9384,4.9418,4.9498,4.9502,4.9515,4.9546,4.9591,4.9599,4.9606,4.9635,4.9645,4.9522,4.9522,4.9522,0,4.881,4.8894,4.8921,4.898,4.9016,4.9028,4.9089,4.9126,4.9199,4.9224,4.9213,4.9335,4.9375,4.9464,4.9484,4.951,4.9528,4.9508,4.9595,4.9603,4.961,4.9638,4.9649,4.9523,4.9523,4.9523,4.9523,0,4.8912,4.897,4.9011,4.9082,4.9123,4.9182,4.9218,4.9257,4.9269,4.9298,4.9375,4.9423,4.9488,4.951,4.9524,4.9602,4.9595,4.9589,4.9567,4.9621,4.9647,4.9658,4.9525,4.9525,4.9524,4.9524,0,0,4.8979,4.9064,4.9078,4.911,4.9176,4.9222,4.9283,4.9346,4.9378,4.9429,4.9481,4.9563,4.9558,4.9596,4.9614,4.9653,4.9714,4.9643,4.9645,4.9654,4.9803,4.9807,4.9819,4.9717,4.9719,4.9721,4.9798,0,4.905,4.9158,4.9184,4.9276,4.933,4.9343,4.9396,4.9443,4.9471,4.9522,4.9553,4.9611,4.96,4.9623,4.9663,4.9698,4.9744,4.9693,4.9766,4.9768,4.975,4.9833,4.9837,4.9907,4.9809,4.9811,4.9812,0,4.9148,4.92,4.9298,4.9357,4.9381,4.9428,4.9488,4.9536,4.9589,4.9607,4.965,4.9664,4.9728,4.9704,4.9792,4.9757,4.9789,4.981,4.9814,4.9821,4.9793,4.9842,4.993,4.9941,4.9829,4.9827,4.9826,0,4.9186,4.9282,4.9352,4.938,4.945,4.9483,4.9514,4.9565,4.9602,4.9655,4.9679,4.9739,4.9772,4.9818,4.9849,4.9828,4.9935,4.9913,4.9952,4.9951,4.9974,4.9972,5.0068,4.9995,4.9994,4.9994,4.9994,0,4.9263,4.9322,4.9371,4.9414,4.9481,4.9511,4.9576,4.9607,4.9653,4.9703,4.9718,4.9765,4.9802,4.9854,4.9879,4.9948,4.9963,4.998,4.9986,4.9978,4.9976,4.9999,4.9995,4.9997,4.9997,4.9996,4.9995,0,4.9317,4.9352,4.943,4.949,4.9507,4.9553,4.9606,4.9648,4.9677,4.9741,4.9757,4.9803,4.9865,4.99,4.9978,4.9995,5.0072,5.0076,5.0054,5.0057,5.0093,5.0089,5.0207,5.0224,5.014,5.0141,5.0141,0,4.9364,4.941,4.9475,4.951,4.9541,4.9596,4.9634,4.9665,4.9704,4.9768,4.9803,4.9866,4.9918,5.0017,5.0057,5.0117,5.0122,5.0159,5.0131,5.0122,5.0122,5.0119,5.0123,5.0164,5.0165,5.0165,5.0166,0,4.9443,4.9458,4.9511,4.957,4.9614,4.9663,4.9711,4.9738,4.9778,4.982,4.9884,4.9924,5.0004,5.0066,5.0129,5.0162,5.0171,5.0174,5.0186,5.0179,5.0165,5.0173,5.0067,5.0171,5.0171,5.017,5.017,5.017,4.9495,4.9536,4.9588,4.9647,4.9686,4.9731,4.9774,4.9809,4.9862,4.9929,4.9945,5.0011,5.0064,5.015,5.0184,5.0237,5.023,5.0248,5.0252,5.0256,5.0257,5.0156,5.0249,5.0249,5.0249,5.0249,5.0249,0,4.9574,4.9608,4.9662,4.9729,4.9775,4.9779,4.9833,4.9871,4.993,4.9978,5.0028,5.0101,5.0162,5.0208,5.027,5.0303,5.0309,5.0319,5.0316,5.0324,5.026,5.0243,5.0313,5.0313,5.0313,5.0313,5.0313,5.0313,4.9621,4.9691,4.9712,4.9802,4.9836,4.9901,4.9931,4.9973,5.0011,5.0092,5.0142,5.0171,5.0219,5.0284,5.034,5.0352,5.0374,5.0383,5.0396,5.0335,5.0328,5.0321,5.0306,5.0388,5.0388,5.0455,5.0456,5.0456]},{"header":{"parameterUnit":"m.s-1","parameterCategory":1,"la1":30.2991,"la2":30.254,"lo1":-89.0895,"lo2":-89.0444,"dy":0.0017,"dx":0.0017,"nx":28,"ny":28,"refTime":"2023-08-08T21:00:00:Z","depth":0,"parameterNumber":3,"parameterNumberName":"V-component_of_WINDS"},"data":[0,0,0,0,0,0,0,0,0,0,0,0,0,0,0,0,0,0,0,0,0,0,0,0,0,0,0,0,0,0,0,0,0,0,0,0,0,0,0,0,0,0,0,0,0,0,0,0,0,0,0,0,0,0,0,0,0,0,2.5562,2.5562,0,2.5555,2.5555,2.5555,2.5552,2.5552,2.5552,2.5552,2.5543,2.5543,2.5543,0,0,0,0,0,0,0,0,0,0,0,0,0,2.5573,2.5572,2.5562,2.5562,2.5562,2.5555,2.5555,2.5555,2.5552,2.5552,2.5552,2.5552,2.5543,2.5543,2.5543,0,0,0,0,0,0,0,0,0,0,0,0,0,2.5567,2.5572,2.5562,2.556,2.556,2.5555,2.5555,2.5555,2.5552,2.5552,2.5552,2.5552,2.5543,2.5543,2.5543,2.5539,0,0,2.5541,2.5541,0,0,0,0,0,0,0,0,2.5567,2.5567,2.556,2.556,2.556,2.5554,2.5555,2.5549,2.5552,2.5555,2.5552,2.5552,2.5547,2.5546,2.5545,2.5539,2.5538,2.5541,2.5541,2.5541,2.5541,0,0,0,0,0,0,0,2.5568,2.5567,2.5559,2.556,2.556,2.5559,2.5558,2.5554,2.5551,2.5555,2.5554,2.5554,2.5547,2.5545,2.5544,2.5538,2.5541,2.5541,2.5541,2.5541,2.5528,2.5528,0,0,0,0,0,0,2.5569,2.5567,2.5559,2.5559,2.5564,2.5558,2.5558,2.5556,2.5551,2.555,2.5554,2.5553,2.5546,2.5545,2.5544,2.5539,2.5541,2.554,2.554,2.5528,2.5528,2.5528,0,0,0,0,0,0,2.5569,2.5568,2.556,2.5563,2.5562,2.5558,2.5556,2.5556,2.5554,2.555,2.5549,2.5553,2.5546,2.5545,2.554,2.5539,2.554,2.554,2.5529,2.5528,2.5528,2.553,0,0,0,0,0,0,2.5569,2.5568,2.5567,2.5563,2.5562,2.5557,2.5556,2.5556,2.5554,2.5554,2.5549,2.5548,2.5546,2.5541,2.554,2.5538,2.554,2.5529,2.5529,2.5528,2.553,2.553,2.553,0,0,0,0,0,2.557,2.5568,2.5567,2.5566,2.5561,2.5557,2.5556,2.5553,2.5554,2.5552,2.5549,2.5548,2.5539,2.554,2.5539,2.5538,2.5529,2.5529,2.5528,2.553,2.553,2.553,0,0,0,0,0,0,2.5572,2.5567,2.5566,2.5563,2.556,2.5556,2.5555,2.5554,2.555,2.555,2.5547,2.5546,2.5542,2.5539,2.5541,2.5534,2.5534,2.5533,2.5535,2.5535,2.5535,2.5536,2.5539,0,0,0,0,0,2.5572,2.5569,2.5566,2.5563,2.5562,2.5558,2.5557,2.5555,2.5552,2.555,2.5547,2.5543,2.554,2.5537,2.5534,2.553,2.5528,2.5528,2.5528,2.5528,2.5527,2.5524,2.5524,2.5528,2.5528,2.5528,0,0,2.5572,2.5569,2.5568,2.5563,2.5561,2.5558,2.5557,2.5555,2.5552,2.555,2.5546,2.5543,2.5539,2.5534,2.5532,2.5532,2.5526,2.5527,2.5527,2.5527,2.5524,2.5523,2.5523,2.5528,2.5528,2.5528,0,0,2.5571,2.5569,2.5566,2.5564,2.556,2.5558,2.5557,2.5553,2.5551,2.5547,2.5545,2.5542,2.5536,2.5533,2.553,2.5527,2.5526,2.5526,2.5526,2.5522,2.5522,2.5522,2.552,2.552,2.5526,2.5526,2.5526,0,2.5571,2.5567,2.5565,2.5562,2.556,2.5558,2.5555,2.5553,2.5548,2.5546,2.5546,2.5538,2.5535,2.553,2.5529,2.5527,2.5526,2.5527,2.5522,2.5522,2.5522,2.552,2.552,2.5526,2.5526,2.5526,2.5526,0,2.5568,2.5565,2.5564,2.5559,2.5557,2.5554,2.5551,2.5549,2.5547,2.5544,2.554,2.5536,2.5531,2.553,2.5528,2.5524,2.5524,2.5523,2.5523,2.5522,2.552,2.5519,2.5526,2.5526,2.5526,2.5526,0,0,2.5568,2.5562,2.5562,2.556,2.5555,2.5553,2.5549,2.5545,2.5543,2.5539,2.5536,2.5531,2.553,2.5527,2.5525,2.5522,2.552,2.5522,2.5522,2.5521,2.5514,2.5514,2.5513,2.5518,2.5518,2.5518,2.5514,0,2.5566,2.5561,2.5558,2.5554,2.5551,2.5548,2.5545,2.5542,2.5539,2.5536,2.5533,2.5529,2.5529,2.5527,2.5524,2.5521,2.5518,2.5521,2.5515,2.5514,2.5516,2.5513,2.5513,2.5509,2.5513,2.5513,2.5513,0,2.5563,2.556,2.5555,2.5551,2.5549,2.5547,2.5542,2.5539,2.5535,2.5533,2.553,2.5528,2.5523,2.5524,2.5517,2.5519,2.5516,2.5514,2.5514,2.5513,2.5514,2.5512,2.5508,2.5508,2.5512,2.5512,2.5512,0,2.5564,2.5558,2.5554,2.5552,2.5547,2.5545,2.5543,2.5539,2.5536,2.5532,2.553,2.5525,2.5523,2.5519,2.5515,2.5516,2.5508,2.5509,2.5506,2.5506,2.5505,2.5505,2.5501,2.5503,2.5503,2.5503,2.5503,0,2.5562,2.5559,2.5554,2.5552,2.5548,2.5545,2.5541,2.5539,2.5535,2.5531,2.5529,2.5526,2.5521,2.5517,2.5514,2.5508,2.5507,2.5505,2.5504,2.5505,2.5506,2.5503,2.5503,2.5503,2.5503,2.5503,2.5503,0,2.5561,2.5558,2.5554,2.5549,2.5548,2.5545,2.5541,2.5538,2.5535,2.5531,2.553,2.5525,2.552,2.5516,2.5509,2.5507,2.5501,2.55,2.5503,2.5502,2.55,2.55,2.5494,2.5493,2.5497,2.5497,2.5497,0,2.556,2.5558,2.5553,2.5551,2.5548,2.5545,2.5542,2.5539,2.5536,2.553,2.5528,2.5523,2.5518,2.551,2.5506,2.55,2.5499,2.5497,2.5498,2.5499,2.5499,2.5499,2.5498,2.5497,2.5497,2.5497,2.5497,0,2.5558,2.5557,2.5554,2.5549,2.5546,2.5543,2.5539,2.5537,2.5533,2.553,2.5525,2.5521,2.5514,2.5509,2.5503,2.5499,2.5497,2.5497,2.5496,2.5497,2.5498,2.5497,2.5502,2.5497,2.5497,2.5497,2.5497,2.5497,2.5557,2.5555,2.5551,2.5547,2.5544,2.554,2.5538,2.5534,2.553,2.5525,2.5523,2.5517,2.5512,2.5504,2.55,2.5495,2.5495,2.5494,2.5494,2.5493,2.5493,2.5499,2.5494,2.5494,2.5494,2.5494,2.5494,0,2.5555,2.5553,2.5549,2.5544,2.554,2.5539,2.5535,2.5532,2.5527,2.5523,2.5519,2.5512,2.5507,2.5502,2.5496,2.5493,2.5492,2.5491,2.5491,2.5491,2.5494,2.5495,2.5492,2.5492,2.5492,2.5492,2.5492,2.5492,2.5554,2.555,2.5548,2.5541,2.5538,2.5534,2.5531,2.5527,2.5524,2.5517,2.5513,2.551,2.5505,2.5498,2.5493,2.5491,2.5489,2.5489,2.5487,2.549,2.549,2.5491,2.5492,2.5488,2.5488,2.5484,2.5484,2.5484]}]]